Change the Weather History Date:

Saturday, October 19, 2013

  Actual Average (KMSP) Record (KMSP)
Temperature  
Mean Temperature 44 °F 48 °F  
Max Temperature 49 °F 57 °F 84 °F (2000)
Min Temperature 37 °F 39 °F 15 °F (1972)
Degree Days  
Heating Degree Days 22 17  
Month to date heating degree days 264  
Since 1 July heating degree days 437  
Cooling Degree Days 0 0  
Month to date cooling degree days 3  
Year to date cooling degree days 750  
Moisture  
Dew Point 36 °F    
Average Humidity 78    
Maximum Humidity 90    
Minimum Humidity 61    
Precipitation  
Precipitation 0.08 in 0.07 in 2.75 in (1934)
Month to date precipitation 1.66  
Year to date precipitation 26.91  
Snow  
Snow 0.00 in 0.00 in 1.30 in (1916)
Month to date snowfall 0.1  
Since 1 July snowfall 0.1  
Since 1 September snowfall 0.1  
Snow Depth -    
Sea Level Pressure  
Sea Level Pressure 29.75 in    
Wind  
Wind Speed 5 mph (West)    
Max Wind Speed 10 mph    
Max Gust Speed 18 mph    
Visibility 10 miles    
Events Rain    
T = Trace of Precipitation, MM = Missing Value Source: NWS Daily Summary

Daily Weather History Graph

Daily Weather History Graph

Search for Another Location

Airport or City:

Trip Planner

Search our weather history database for the weather conditions in past years. The results will help you decide how hot, cold, wet, or windy it might be!

Date:

Astronomy

Oct. 19, 2013 Rise Set
Actual Time 7:33 AM CDT 6:20 PM CDT
Civil Twilight 7:03 AM CDT 6:49 PM CDT
Nautical Twilight 6:29 AM CDT 7:23 PM CDT
Astronomical Twilight 5:55 AM CDT 7:57 PM CDT
Moon 6:45 PM CDT (10/19) 8:13 AM CDT (10/19)
Length of Visible Light 11h 46m
Length of Day
10h 46m
Waxing Gibbous, 99% of the Moon is Illuminated
Oct 19
Waxing Gibbous
Oct 26
Last Quarter
Nov 3
New
Nov 9
First Quarter
Nov 17
Full

Hourly Weather History & Observations

Time (CDT) Temp. Windchill Dew Point Humidity Pressure Visibility Wind Dir Wind Speed Gust Speed Precip Events Conditions
12:12 AM 45.1 °F 42.0 °F 33.8 °F 65% 29.84 in 10.0 mi West 5.8 mph - N/A   Overcast
12:32 AM 45.0 °F - 34.2 °F 66% 29.83 in 10.0 mi Calm Calm - N/A   Scattered Clouds
12:52 AM 44.6 °F - 35.1 °F 69% 29.82 in 10.0 mi Calm Calm - N/A   Scattered Clouds
1:12 AM 44.6 °F 43.1 °F 35.8 °F 71% 29.82 in 10.0 mi SW 3.5 mph - N/A   Mostly Cloudy
1:32 AM 44.2 °F 41.8 °F 35.8 °F 72% 29.82 in 10.0 mi WSW 4.6 mph - N/A   Overcast
1:52 AM 43.7 °F 40.3 °F 36.1 °F 75% 29.81 in 10.0 mi SW 5.8 mph - N/A   Overcast
2:12 AM 43.2 °F 39.0 °F 35.8 °F 75% 29.81 in 10.0 mi WSW 6.9 mph - N/A   Mostly Cloudy
2:32 AM 42.3 °F 39.4 °F 35.6 °F 77% 29.81 in 10.0 mi WSW 4.6 mph - N/A   Scattered Clouds
2:52 AM 41.4 °F 39.4 °F 35.6 °F 80% 29.80 in 10.0 mi SW 3.5 mph - N/A   Clear
3:12 AM 41.0 °F 38.0 °F 35.6 °F 81% 29.79 in 10.0 mi WSW 4.6 mph - N/A   Clear
3:32 AM 40.3 °F 37.1 °F 35.6 °F 83% 29.79 in 10.0 mi SW 4.6 mph - N/A   Clear
3:52 AM 39.6 °F 36.3 °F 35.6 °F 86% 29.78 in 10.0 mi SW 4.6 mph - N/A   Clear
4:12 AM 39.7 °F 36.5 °F 35.8 °F 86% 29.77 in 10.0 mi SW 4.6 mph - N/A   Clear
4:32 AM 39.7 °F 36.5 °F 36.0 °F 86% 29.76 in 10.0 mi SW 4.6 mph - N/A   Mostly Cloudy
4:52 AM 39.4 °F 34.5 °F 35.8 °F 87% 29.76 in 10.0 mi SW 6.9 mph - N/A   Scattered Clouds
5:12 AM 39.6 °F 35.4 °F 36.0 °F 87% 29.75 in 10.0 mi SW 5.8 mph - N/A   Clear
5:32 AM 39.2 °F 35.9 °F 35.4 °F 86% 29.75 in 10.0 mi SW 4.6 mph - N/A   Clear
5:52 AM 38.5 °F - 34.7 °F 86% 29.75 in 10.0 mi Calm Calm - N/A   Clear
6:12 AM 38.3 °F - 34.9 °F 87% 29.74 in 10.0 mi Calm Calm - N/A   Clear
6:32 AM 38.5 °F - 35.1 °F 87% 29.74 in 10.0 mi Calm Calm - N/A   Clear
6:52 AM 38.3 °F 34.8 °F 34.7 °F 87% 29.74 in 10.0 mi SW 4.6 mph - N/A   Clear
7:12 AM 38.3 °F 35.9 °F 34.7 °F 87% 29.73 in 10.0 mi SSW 3.5 mph - N/A   Scattered Clouds
7:32 AM 38.5 °F 34.1 °F 34.9 °F 87% 29.73 in 10.0 mi SW 5.8 mph - N/A   Clear
7:52 AM 39.2 °F 35.0 °F 35.1 °F 85% 29.73 in 10.0 mi SW 5.8 mph - N/A   Clear
8:12 AM 39.9 °F 35.8 °F 35.2 °F 83% 29.73 in 10.0 mi WSW 5.8 mph - N/A   Scattered Clouds
9:12 AM 41.2 °F 39.2 °F 36.0 °F 82% 29.72 in 10.0 mi South 3.5 mph - N/A Rain Light Rain
9:32 AM 41.5 °F 37.8 °F 36.7 °F 83% 29.72 in 10.0 mi SSW 5.8 mph - N/A   Overcast
9:52 AM 42.1 °F 37.7 °F 37.0 °F 82% 29.72 in 10.0 mi SW 6.9 mph - N/A   Overcast
10:12 AM 42.8 °F 38.6 °F 37.4 °F 81% 29.72 in 10.0 mi SW 6.9 mph - N/A   Overcast
10:32 AM 43.2 °F 38.4 °F 36.9 °F 78% 29.72 in 10.0 mi WSW 8.1 mph - N/A   Overcast
10:52 AM 43.7 °F 38.6 °F 37.0 °F 77% 29.71 in 10.0 mi West 9.2 mph - N/A   Overcast
11:12 AM 44.6 °F 40.7 °F 37.6 °F 76% 29.71 in 10.0 mi WSW 6.9 mph - N/A   Overcast
11:32 AM 45.5 °F 40.8 °F 37.4 °F 73% 29.71 in 10.0 mi West 9.2 mph - N/A   Overcast
11:52 AM 46.4 °F 41.5 °F 36.1 °F 67% 29.70 in 10.0 mi WNW 10.4 mph 18.4 mph N/A   Mostly Cloudy
12:12 PM 46.4 °F 42.4 °F 35.8 °F 67% 29.70 in 10.0 mi West 8.1 mph - N/A   Overcast
12:32 PM 46.6 °F - 36.5 °F 68% 29.70 in 10.0 mi West 6.9 mph - N/A   Overcast
12:52 PM 47.5 °F - 36.9 °F 67% 29.69 in 10.0 mi West 4.6 mph - N/A   Overcast
1:12 PM 48.0 °F - 36.9 °F 65% 29.69 in 10.0 mi West 3.5 mph - N/A   Overcast
1:32 PM 47.3 °F - 36.5 °F 66% 29.69 in 10.0 mi West 6.9 mph - N/A   Overcast
1:52 PM 47.5 °F - 37.0 °F 67% 29.69 in 10.0 mi Calm Calm - N/A   Overcast
2:12 PM 49.5 °F - 36.7 °F 61% 29.68 in 10.0 mi West 8.1 mph - N/A   Overcast
2:32 PM 45.9 °F 42.3 °F 36.7 °F 70% 29.69 in 7.0 mi North 6.9 mph - 0.01 in Rain Heavy Rain
2:52 PM 41.0 °F - 37.4 °F 87% 29.70 in 4.0 mi Calm Calm - 0.08 in Rain Light Rain
3:12 PM 42.8 °F 40.1 °F 39.9 °F 90% 29.71 in 10.0 mi NW 4.6 mph - N/A   Mostly Cloudy
3:32 PM 43.7 °F 39.1 °F 39.7 °F 86% 29.71 in 7.0 mi NNW 8.1 mph - N/A   Overcast
3:52 PM 44.4 °F 40.5 °F 39.4 °F 82% 29.72 in 10.0 mi NNW 6.9 mph - N/A   Mostly Cloudy
4:12 PM 45.9 °F 41.7 °F 39.4 °F 78% 29.72 in 10.0 mi WNW 8.1 mph - N/A   Mostly Cloudy
4:32 PM 45.5 °F 43.2 °F 38.5 °F 76% 29.73 in 10.0 mi WNW 4.6 mph - N/A   Scattered Clouds
4:52 PM 45.5 °F 43.2 °F 38.7 °F 77% 29.73 in 10.0 mi West 4.6 mph - N/A   Scattered Clouds
5:12 PM 46.0 °F 43.1 °F 39.0 °F 76% 29.74 in 10.0 mi West 5.8 mph - N/A   Overcast
5:32 PM 46.0 °F 42.5 °F 37.6 °F 72% 29.74 in 10.0 mi WNW 6.9 mph - N/A   Overcast
5:52 PM 45.5 °F 41.8 °F 37.6 °F 74% 29.74 in 10.0 mi West 6.9 mph - N/A   Overcast
6:12 PM 44.8 °F 40.4 °F 37.4 °F 75% 29.75 in 10.0 mi West 8.1 mph - N/A   Scattered Clouds
6:32 PM 44.1 °F 40.8 °F 37.2 °F 77% 29.75 in 10.0 mi West 5.8 mph - N/A   Clear
6:52 PM 43.7 °F 40.3 °F 37.4 °F 78% 29.76 in 10.0 mi West 5.8 mph - N/A   Clear
7:12 PM 43.7 °F 39.7 °F 37.2 °F 78% 29.77 in 10.0 mi West 6.9 mph - N/A   Clear
7:32 PM 43.2 °F 38.4 °F 36.5 °F 77% 29.78 in 10.0 mi West 8.1 mph - N/A   Clear
7:52 PM 43.2 °F 38.4 °F 35.8 °F 75% 29.78 in 10.0 mi West 8.1 mph - N/A   Clear
8:12 PM 43.0 °F 38.8 °F 35.1 °F 74% 29.78 in 10.0 mi West 6.9 mph - N/A   Clear
8:32 PM 42.3 °F 39.4 °F 35.1 °F 76% 29.79 in 10.0 mi WNW 4.6 mph - N/A   Clear
8:52 PM 41.9 °F 39.0 °F 35.2 °F 77% 29.79 in 10.0 mi West 4.6 mph - N/A   Clear
9:12 PM 41.4 °F 39.4 °F 35.1 °F 78% 29.79 in 10.0 mi West 3.5 mph - N/A   Clear
9:32 PM 41.0 °F - 35.2 °F 80% 29.80 in 10.0 mi Calm Calm - N/A   Clear
9:52 PM 40.1 °F 38.0 °F 35.1 °F 82% 29.80 in 10.0 mi West 3.5 mph - N/A   Clear
10:12 PM 39.7 °F 37.6 °F 35.2 °F 84% 29.80 in 10.0 mi West 3.5 mph - N/A   Clear
10:32 PM 38.8 °F 35.4 °F 34.7 °F 85% 29.80 in 10.0 mi West 4.6 mph - N/A   Clear
10:52 PM 38.5 °F 36.1 °F 34.5 °F 86% 29.80 in 10.0 mi West 3.5 mph - N/A   Clear
11:12 PM 38.5 °F 34.1 °F 34.7 °F 86% 29.80 in 10.0 mi West 5.8 mph - N/A   Clear
11:32 PM 38.1 °F 35.7 °F 34.0 °F 85% 29.81 in 10.0 mi West 3.5 mph - N/A   Clear
11:52 PM 37.8 °F 35.3 °F 33.8 °F 86% 29.81 in 10.0 mi West 3.5 mph - N/A   Clear